Weather History for Minneapolis, MN

Change the Weather History Date:

Wednesday, September 12, 2012

  Actual Average Record
Temperature  
Mean Temperature 67 °F 64 °F  
Max Temperature 78 °F 73 °F 94 °F (1948)
Min Temperature 56 °F 54 °F 36 °F (1940)
Degree Days  
Heating Degree Days 0 4  
Month to date heating degree days 2 31  
Since 1 July heating degree days 6 50  
Cooling Degree Days 2 3  
Month to date cooling degree days 84 42  
Year to date cooling degree days 1119 723  
Growing Degree Days 10 (Base 50)    
Moisture  
Dew Point 49 °F    
Average Humidity 58    
Maximum Humidity 78    
Minimum Humidity 37    
Precipitation  
Precipitation 0.09 in 0.11 in 4.96 in (1903)
Month to date precipitation 0.11 1.30  
Year to date precipitation 25.83 23.47  
Snow  
Snow 0.00 in 0.00 in 0.00 in ()
Month to date snowfall 0.0 0.0  
Since 1 July snowfall T 0.0  
Since 1 September snowfall 0.0 0.0  
Snow Depth 0.00 in    
Sea Level Pressure  
Sea Level Pressure 30.11 in    
Wind  
Wind Speed 5 mph (West)    
Max Wind Speed 16 mph    
Max Gust Speed 22 mph    
Visibility 10 miles    
Events Rain    
T = Trace of Precipitation, MM = Missing Value Source: NWS Daily Summary

Daily Weather History Graph

Daily Weather History Graph

Search for Another Location

Airport:

Trip Planner

Search our weather history database for the weather conditions in past years. The results will help you decide how hot, cold, wet, or windy it might be!

Date:

Astronomy

Sep. 12, 2012 Rise Set
Actual Time 6:48 AM CDT 7:28 PM CDT
Civil Twilight 6:19 AM CDT 7:57 PM CDT
Nautical Twilight 5:44 AM CDT 8:32 PM CDT
Astronomical Twilight 5:07 AM CDT 9:09 PM CDT
Moon 2:58 AM CDT (9/12) 5:22 PM CDT (9/12)
Length of Visible Light 13h 38m
Length of Day
12h 39m
Waning Crescent, 13% of the Moon is Illuminated
Sep 12
Waning Crescent
Sep 15
New
Sep 22
First Quarter
Sep 29
Full
Oct 8
Last Quarter

Hourly Weather History & Observations

Time (CDT) Temp. Dew Point Humidity Pressure Visibility Wind Dir Wind Speed Gust Speed Precip Events Conditions
12:53 AM 78.1 °F 50.0 °F 37% 29.83 in 10.0 mi SW 6.9 mph - N/A   Mostly Cloudy
1:30 AM 73.4 °F 51.8 °F 47% 29.89 in 10.0 mi NW 11.5 mph 20.7 mph N/A   Mostly Cloudy
1:53 AM 73.0 °F 52.0 °F 48% 29.89 in 9.0 mi NW 11.5 mph - N/A   Mostly Cloudy
2:53 AM 70.0 °F 48.9 °F 47% 29.93 in 9.0 mi NW 12.7 mph - N/A   Mostly Cloudy
3:53 AM 68.0 °F 46.0 °F 45% 29.97 in 10.0 mi NW 11.5 mph - 0.00 in   Mostly Cloudy
4:34 AM 64.4 °F 46.4 °F 52% 30.03 in 10.0 mi NW 9.2 mph - 0.00 in Rain Light Rain
4:53 AM 63.0 °F 48.9 °F 60% 30.03 in 10.0 mi NNW 8.1 mph - 0.00 in Rain Light Rain
5:53 AM 60.1 °F 48.0 °F 64% 30.00 in 10.0 mi NE 9.2 mph - 0.02 in   Overcast
6:21 AM 60.8 °F 48.2 °F 63% 30.05 in 10.0 mi Calm Calm - 0.00 in   Mostly Cloudy
6:53 AM 62.1 °F 48.0 °F 60% 30.05 in 10.0 mi Calm Calm - 0.00 in   Overcast
7:53 AM 63.0 °F 46.9 °F 56% 30.06 in 10.0 mi Calm Calm - N/A   Overcast
8:53 AM 63.0 °F 50.0 °F 63% 30.10 in 10.0 mi Calm Calm - N/A   Overcast
9:53 AM 64.0 °F 46.0 °F 52% 30.12 in 10.0 mi West 3.5 mph - N/A   Overcast
10:34 AM 62.6 °F 48.2 °F 59% 30.18 in 10.0 mi West 9.2 mph - 0.00 in Rain Light Rain
10:53 AM 62.1 °F 48.0 °F 60% 30.18 in 10.0 mi West 3.5 mph - 0.00 in Rain Light Rain
11:53 AM 61.0 °F 52.0 °F 72% 30.18 in 8.0 mi SSW 5.8 mph - 0.02 in Rain Light Rain
12:53 PM 60.1 °F 54.0 °F 80% 30.20 in 9.0 mi SSW 4.6 mph - 0.02 in Rain Light Rain
1:53 PM 59.0 °F 50.0 °F 72% 30.19 in 10.0 mi SSW 5.8 mph - 0.00 in Rain Light Rain
2:53 PM 57.9 °F 52.0 °F 81% 30.19 in 10.0 mi WSW 3.5 mph - 0.00 in   Overcast
3:53 PM 57.9 °F 53.1 °F 84% 30.21 in 8.0 mi SSW 8.1 mph - 0.02 in Rain Light Rain
4:53 PM 57.0 °F 52.0 °F 83% 30.21 in 10.0 mi South 6.9 mph - 0.01 in   Overcast
5:53 PM 57.9 °F 48.9 °F 72% 30.22 in 10.0 mi SW 4.6 mph - N/A   Overcast
6:53 PM 57.9 °F 48.9 °F 72% 30.22 in 10.0 mi WSW 4.6 mph - N/A   Overcast
7:53 PM 57.0 °F 50.0 °F 77% 30.22 in 10.0 mi WSW 4.6 mph - N/A   Overcast
8:53 PM 55.9 °F 48.9 °F 77% 30.23 in 10.0 mi Calm Calm - N/A   Overcast
9:53 PM 55.9 °F 48.9 °F 77% 30.25 in 10.0 mi West 4.6 mph - N/A   Overcast
10:53 PM 55.9 °F 48.0 °F 75% 30.25 in 10.0 mi WSW 4.6 mph - N/A   Overcast
11:53 PM 57.0 °F 48.9 °F 74% 30.25 in 10.0 mi Calm Calm - N/A   Overcast